GW0500 Weather Reports


time (UTC)temp
C
wind
direction
speed
KPH
gust
KPH
rain 1hr
cm
rain 24hr
cm
rain mn
cm
humidity
%
barometer
mb
20260506045049 5 0 0.0 4.8 0.03 0.43 0.36 92 1018.7
20260506044623 5 66 1.6 4.8 0.03 0.43 0.36 92 1018.7
20260506044046 5 0 0.0 4.8 0.03 0.43 0.36 92 1018.6
20260506043547 5 67 1.6 4.8 0.03 0.43 0.36 92 1018.5
20260506043054 5 0 1.6 4.8 0.03 0.43 0.36 92 1018.5
20260506042547 5 94 1.6 6.4 0.03 0.43 0.36 92 1018.5
20260506042046 5 167 1.6 6.4 0.03 0.43 0.36 92 1018.4
20260506041559 5 0 0.0 4.8 0.03 0.43 0.36 92 1018.3
20260506041044 5 97 0.0 4.8 0.03 0.43 0.36 92 1018.2
20260506040546 5 126 1.6 4.8 0.03 0.43 0.36 92 1018.2
20260506040056 5 0 1.6 4.8 0.03 0.43 0.36 91 1018.0
20260506035547 5 172 0.0 4.8 0.00 0.41 0.33 91 1018.0
20260506035045 5 129 0.0 6.4 0.00 0.41 0.33 91 1017.8
20260506034552 5 165 1.6 6.4 0.00 0.41 0.33 91 1017.7
20260506034046 5 144 0.0 4.8 0.00 0.41 0.33 91 1017.7
20260506033547 5 203 0.0 4.8 0.00 0.41 0.33 91 1017.6
20260506033054 5 0 1.6 4.8 0.00 0.41 0.33 91 1017.6
20260506032547 5 0 0.0 3.2 0.00 0.41 0.33 91 1017.4
20260506032047 6 0 0.0 3.2 0.00 0.41 0.33 91 1017.4
20260506031551 6 320 0.0 4.8 0.00 0.41 0.33 90 1017.4
20260506031045 6 275 0.0 4.8 0.00 0.41 0.33 90 1017.4
20260506030543 6 0 0.0 3.2 0.00 0.41 0.33 90 1017.3
20260506030057 6 182 1.6 6.4 0.00 0.41 0.33 89 1017.2
20260506025544 6 0 0.0 6.4 0.00 0.41 0.33 89 1017.1
20260506025047 6 162 1.6 6.4 0.00 0.41 0.33 89 1017.1
20260506024559 6 0 0.0 4.8 0.00 0.41 0.33 89 1017.0
20260506024045 6 156 0.0 1.6 0.00 0.41 0.33 88 1017.0
20260506023546 6 0 0.0 3.2 0.00 0.41 0.33 89 1016.9
20260506023100 6 67 0.0 6.4 0.00 0.41 0.33 88 1016.9
20260506022543 6 0 0.0 6.4 0.00 0.41 0.33 88 1016.8
20260506022045 6 0 0.0 4.8 0.00 0.41 0.33 88 1016.8
20260506021606 6 44 0.0 4.8 0.00 0.41 0.33 87 1016.7
20260506021044 6 0 0.0 4.8 0.00 0.41 0.33 87 1016.8
20260506020546 6 0 0.0 4.8 0.00 0.41 0.33 86 1016.7
20260506020049 6 0 1.6 6.4 0.00 0.41 0.33 85 1016.6
20260506015547 6 43 0.0 8.0 0.00 0.41 0.33 85 1016.6
20260506015047 6 209 1.6 8.0 0.00 0.41 0.33 85 1016.7
20260506014558 6 0 1.6 8.0 0.00 0.41 0.33 83 1016.5
20260506014044 6 142 1.6 8.0 0.00 0.41 0.33 83 1016.5
20260506013544 7 341 0.0 6.4 0.00 0.41 0.33 84 1016.5
20260506013104 7 0 0.0 6.4 0.00 0.41 0.33 84 1016.4
20260506012547 7 178 1.6 6.4 0.00 0.41 0.33 82 1016.4
20260506012047 7 0 1.6 4.8 0.00 0.41 0.33 81 1016.4
20260506011555 7 62 1.6 8.0 0.03 0.41 0.33 81 1016.5
20260506011048 7 0 1.6 9.7 0.03 0.41 0.33 81 1016.5
20260506010545 7 98 1.6 9.7 0.03 0.41 0.33 81 1016.4
20260506010112 7 0 3.2 8.0 0.03 0.41 0.33 81 1016.3
20260506005547 7 310 1.6 9.7 0.03 0.41 0.33 79 1016.3
20260506005044 7 273 3.2 9.7 0.03 0.41 0.33 78 1016.2
20260506004554 8 95 1.6 9.7 0.03 0.41 0.33 79 1016.2
20260506004048 8 309 0.0 6.4 0.03 0.41 0.33 78 1016.0
20260506003545 8 0 1.6 9.7 0.03 0.41 0.33 78 1016.1
20260506003052 8 351 1.6 9.7 0.03 0.41 0.33 75 1015.9
20260506002545 8 154 0.0 16.1 0.03 0.41 0.33 77 1015.9
20260506002045 8 242 1.6 16.1 0.00 0.38 0.30 78 1016.0
20260506001551 8 0 3.2 16.1 0.00 0.38 0.30 75 1015.8
20260506001045 8 338 3.2 12.9 0.00 0.38 0.30 76 1015.9
20260506000544 8 59 1.6 9.7 0.00 0.38 0.30 79 1015.9
20260506000056 8 0 1.6 14.5 0.00 0.38 0.30 79 1015.8
20260505235545 8 302 1.6 14.5 0.00 0.38 0.30 77 1015.9
20260505235048 8 142 3.2 11.3 0.00 0.38 0.30 73 1015.7
20260505234607 8 0 1.6 11.3 0.00 0.38 0.30 73 1015.7
20260505234045 8 0 1.6 12.9 0.00 0.38 0.30 76 1015.6
20260505233544 8 0 3.2 16.1 0.00 0.38 0.30 76 1015.7
20260505233049 8 170 3.2 17.7 0.00 0.38 0.30 74 1015.7
20260505232550 8 146 1.6 17.7 0.03 0.38 0.30 74 1015.6
20260505232046 8 230 3.2 11.3 0.03 0.38 0.30 76 1015.8
20260505231553 9 213 3.2 16.1 0.03 0.38 0.30 74 1015.7
20260505231046 9 294 3.2 27.4 0.03 0.38 0.30 74 1015.7
20260505230544 9 114 6.4 27.4 0.03 0.38 0.30 73 1015.7
20260505230053 8 172 1.6 16.1 0.03 0.38 0.30 78 1015.7
20260505225547 8 266 4.8 16.1 0.03 0.38 0.30 78 1015.7
20260505225048 8 27 3.2 9.7 0.03 0.38 0.30 81 1015.8
20260505224551 8 136 3.2 16.1 0.03 0.38 0.30 78 1015.8
20260505224049 8 0 3.2 16.1 0.03 0.38 0.30 78 1015.9
20260505223544 8 55 6.4 14.5 0.03 0.38 0.30 78 1015.9
20260505223050 8 0 3.2 14.5 0.03 0.38 0.30 80 1015.9
20260505222548 8 281 4.8 14.5 0.00 0.36 0.28 79 1016.1
20260505222044 8 202 3.2 17.7 0.00 0.36 0.28 80 1016.1
20260505221551 8 69 3.2 17.7 0.00 0.36 0.28 79 1016.1
20260505221052 8 152 3.2 11.3 0.00 0.36 0.28 82 1016.2
20260505220546 8 90 1.6 11.3 0.00 0.36 0.28 83 1016.1
20260505220056 7 275 3.2 17.7 0.00 0.36 0.28 81 1016.2
20260505215544 7 294 3.2 17.7 0.03 0.36 0.28 86 1016.2
20260505215052 7 312 4.8 14.5 0.03 0.36 0.28 84 1016.1
20260505214604 7 54 1.6 14.5 0.03 0.36 0.28 88 1016.1
20260505214047 7 0 1.6 14.5 0.03 0.36 0.28 87 1016.2
20260505213549 7 108 3.2 9.7 0.03 0.36 0.28 88 1016.2
20260505213059 7 131 3.2 12.9 0.03 0.36 0.28 90 1016.4
20260505212544 7 285 3.2 12.9 0.03 0.36 0.28 91 1016.4
20260505212046 7 60 1.6 11.3 0.03 0.36 0.28 92 1016.4
20260505211550 7 152 3.2 14.5 0.03 0.36 0.28 91 1016.3
20260505211044 7 155 3.2 14.5 0.03 0.36 0.28 91 1016.5
20260505210545 7 107 1.6 19.3 0.03 0.36 0.28 92 1016.3
20260505210058 7 123 1.6 19.3 0.03 0.36 0.28 93 1016.5
20260505205544 7 58 3.2 19.3 0.00 0.33 0.25 94 1016.6
20260505205049 7 217 1.6 9.7 0.00 0.33 0.25 94 1016.4
20260505204559 7 202 3.2 9.7 0.00 0.33 0.25 94 1016.6
20260505204044 6 84 1.6 11.3 0.00 0.33 0.25 94 1016.5
20260505203547 6 116 1.6 11.3 0.00 0.33 0.25 94 1016.5
20260505203056 7 99 3.2 11.3 0.00 0.33 0.25 95 1016.4
20260505202545 6 138 3.2 16.1 0.00 0.33 0.25 95 1016.5
20260505202045 6 131 1.6 16.1 0.00 0.33 0.25 95 1016.5
20260505201555 6 87 1.6 9.7 0.00 0.33 0.25 95 1016.6
20260505201044 6 199 3.2 9.7 0.00 0.33 0.25 95 1016.6
20260505200547 6 68 3.2 11.3 0.00 0.33 0.25 95 1016.7
20260505195545 6 78 1.6 12.9 0.00 0.33 0.25 95 1016.7
20260505195049 6 211 1.6 12.9 0.03 0.33 0.25 95 1016.6
20260505194557 5 0 0.0 12.9 0.03 0.33 0.25 95 1016.6
20260505194045 5 64 1.6 12.9 0.03 0.33 0.25 95 1016.7
20260505193546 5 0 1.6 11.3 0.03 0.33 0.25 95 1016.7
20260505193053 5 5 3.2 11.3 0.03 0.33 0.25 95 1016.9
20260505192543 5 148 3.2 8.0 0.03 0.33 0.25 95 1016.9
20260505192043 5 218 0.0 6.4 0.03 0.33 0.25 95 1016.8
20260505191551 5 61 1.6 9.7 0.03 0.33 0.25 95 1017.0
20260505191048 5 33 1.6 9.7 0.03 0.33 0.25 95 1016.9
20260505190545 5 171 1.6 9.7 0.03 0.33 0.25 95 1016.8
20260505190050 5 200 0.0 8.0 0.03 0.33 0.25 95 1016.8
20260505185547 5 150 3.2 17.7 0.03 0.33 0.25 95 1016.7
20260505185045 5 170 1.6 17.7 0.00 0.30 0.23 95 1016.7
20260505184552 5 141 3.2 11.3 0.00 0.30 0.23 95 1016.6
20260505184044 5 134 1.6 11.3 0.00 0.30 0.23 95 1016.7
20260505183548 5 36 1.6 16.1 0.00 0.30 0.23 95 1016.7
20260505183054 5 0 3.2 16.1 0.00 0.30 0.23 95 1016.5
20260505182547 5 63 0.0 9.7 0.00 0.30 0.23 95 1016.5
20260505182046 5 139 0.0 12.9 0.00 0.30 0.23 95 1016.5
20260505181550 5 84 4.8 12.9 0.00 0.30 0.23 95 1016.5
20260505181045 5 155 1.6 4.8 0.00 0.30 0.23 96 1016.5
20260505180550 5 240 1.6 9.7 0.00 0.30 0.23 95 1016.4
20260505180105 5 281 1.6 9.7 0.00 0.30 0.23 95 1016.4
20260505175547 5 54 1.6 8.0 0.00 0.30 0.23 95 1016.4
20260505175048 5 0 1.6 19.3 0.00 0.30 0.23 95 1016.2
20260505174603 5 140 4.8 19.3 0.00 0.30 0.23 95 1016.3
20260505174044 5 104 3.2 19.3 0.00 0.30 0.23 95 1016.2
20260505173544 5 74 3.2 12.9 0.00 0.30 0.23 95 1016.1
20260505173052 5 139 1.6 12.9 0.03 0.30 0.23 95 1016.1
20260505172546 5 163 3.2 8.0 0.03 0.30 0.23 95 1016.0
20260505172044 5 352 0.0 16.1 0.03 0.30 0.23 95 1015.8
20260505171551 5 184 4.8 16.1 0.03 0.30 0.23 95 1015.8
20260505171048 5 132 1.6 6.4 0.03 0.30 0.23 95 1015.7
20260505170550 5 38 0.0 4.8 0.03 0.30 0.23 95 1015.6
20260505170057 5 360 1.6 8.0 0.03 0.30 0.23 95 1015.6
20260505165544 5 0 1.6 11.3 0.03 0.33 0.23 95 1015.4
20260505165046 5 192 1.6 11.3 0.03 0.33 0.23 95 1015.3
20260505164552 5 0 0.0 9.7 0.03 0.33 0.23 95 1015.3
20260505164046 5 263 1.6 9.7 0.03 0.33 0.23 95 1015.3
20260505163546 5 0 0.0 16.1 0.03 0.33 0.23 95 1015.3
20260505163054 5 337 0.0 19.3 0.00 0.30 0.20 95 1015.3
20260505162545 5 158 3.2 19.3 0.00 0.30 0.20 95 1015.2
20260505162044 5 344 1.6 8.0 0.00 0.30 0.20 95 1015.1
20260505161605 5 214 1.6 12.9 0.00 0.30 0.20 95 1015.1
20260505161047 5 171 1.6 12.9 0.00 0.30 0.20 95 1015.2
20260505160545 5 207 1.6 9.7 0.00 0.30 0.20 95 1015.1
20260505153054 5 297 1.6 12.9 0.03 0.30 0.20 95 1014.7
20260505152544 5 71 1.6 8.0 0.03 0.30 0.20 95 1014.8
20260505152049 5 241 1.6 8.0 0.03 0.30 0.20 95 1014.7
20260505151551 5 126 3.2 11.3 0.03 0.30 0.20 95 1014.7
20260505151044 5 159 1.6 11.3 0.03 0.30 0.20 95 1014.6
20260505150546 5 219 1.6 12.9 0.03 0.30 0.20 95 1014.6
20260505140547 5 0 0.0 4.8 0.03 0.28 0.18 95 1014.2
20260505140104 5 95 1.6 8.0 0.03 0.28 0.18 95 1014.2
20260505124552 6 53 3.2 8.0 0.03 0.28 0.15 95 1014.2
20260505124047 6 0 1.6 9.7 0.03 0.28 0.15 95 1014.1
20260505123545 5 121 1.6 9.7 0.03 0.28 0.15 95 1014.0
20260505123100 5 90 0.0 6.4 0.03 0.28 0.15 95 1013.8
20260505122545 5 0 0.0 4.8 0.03 0.28 0.15 95 1013.7
20260505122046 5 147 0.0 4.8 0.03 0.28 0.15 95 1013.8
20260505121557 5 199 0.0 4.8 0.00 0.25 0.13 95 1013.8
20260505121046 6 111 1.6 9.7 0.00 0.25 0.13 95 1013.8
20260505120546 6 0 1.6 9.7 0.03 0.25 0.13 95 1013.9
20260505120051 6 334 1.6 8.0 0.03 0.25 0.13 95 1014.0
20260505115544 6 40 1.6 6.4 0.03 0.25 0.13 95 1013.9
20260505115045 6 0 0.0 6.4 0.03 0.25 0.13 95 1013.9
20260505114554 6 0 0.0 3.2 0.03 0.25 0.13 95 1013.8
20260505114048 6 135 0.0 3.2 0.03 0.25 0.13 95 1013.9
20260505113547 6 328 0.0 8.0 0.03 0.25 0.13 95 1013.8
20260505113108 6 87 0.0 8.0 0.03 0.25 0.13 95 1013.9
20260505112547 5 67 3.2 8.0 0.03 0.25 0.13 95 1013.9
20260505112046 5 103 0.0 4.8 0.03 0.25 0.13 95 1014.1
20260505111552 5 0 0.0 3.2 0.03 0.25 0.13 95 1014.0
20260505111046 5 0 0.0 9.7 0.03 0.25 0.13 95 1014.0
20260505110546 5 0 0.0 9.7 0.00 0.23 0.10 95 1013.9
20260505102044 5 0 0.0 4.8 0.03 0.25 0.10 95 1013.9
20260505101555 5 0 0.0 3.2 0.03 0.25 0.10 95 1013.9
20260505101046 5 34 0.0 3.2 0.03 0.25 0.10 95 1013.9
20260505100548 5 0 0.0 4.8 0.03 0.25 0.10 95 1014.1
20260505100055 5 0 0.0 4.8 0.00 0.23 0.08 95 1014.1
20260505095543 5 32 1.6 4.8 0.00 0.25 0.08 95 1014.2
20260505095046 5 67 1.6 4.8 0.00 0.25 0.08 94 1014.2
20260505094557 5 0 0.0 6.4 0.03 0.25 0.08 94 1014.2
20260505094047 5 127 0.0 8.0 0.03 0.25 0.08 94 1014.2
20260505093547 5 124 3.2 8.0 0.03 0.25 0.08 94 1014.4
20260505093054 5 82 0.0 11.3 0.03 0.25 0.08 94 1014.4
20260505092546 5 105 1.6 11.3 0.03 0.25 0.08 94 1014.4
20260505092047 5 147 1.6 6.4 0.03 0.25 0.08 94 1014.5
20260505091608 5 30 0.0 6.4 0.03 0.25 0.08 94 1014.4
20260505091045 5 106 0.0 4.8 0.03 0.25 0.08 95 1014.5
20260505090546 5 61 0.0 4.8 0.03 0.25 0.08 94 1014.5
20260505090054 5 0 0.0 4.8 0.03 0.25 0.08 95 1014.5
20260505085550 5 0 0.0 4.8 0.03 0.25 0.08 95 1014.5
20260505085046 5 0 0.0 4.8 0.05 0.25 0.08 95 1014.6
20260505084553 5 0 0.0 4.8 0.03 0.23 0.05 95 1014.7
20260505084045 5 0 0.0 3.2 0.03 0.23 0.05 95 1014.6
20260505083545 5 0 0.0 4.8 0.03 0.23 0.05 94 1014.6
20260505083049 5 0 0.0 4.8 0.03 0.23 0.05 94 1014.9
20260505082549 5 311 1.6 6.4 0.03 0.23 0.05 94 1015.0
20260505082047 5 280 0.0 6.4 0.03 0.23 0.05 94 1015.1
20260505081600 5 0 1.6 9.7 0.03 0.23 0.05 94 1015.1
20260505081047 5 0 1.6 9.7 0.03 0.23 0.05 94 1015.2
20260505080546 5 240 0.0 6.4 0.03 0.23 0.05 94 1015.3
20260505080108 5 0 0.0 6.4 0.05 0.23 0.05 94 1015.3
20260505075549 5 98 1.6 6.4 0.05 0.23 0.05 94 1015.4
20260505075046 5 0 0.0 4.8 0.03 0.20 0.03 94 1015.3
20260505074602 5 85 0.0 6.4 0.03 0.20 0.03 94 1015.3
20260505074044 5 0 3.2 6.4 0.03 0.20 0.03 94 1015.3
20260505073545 5 121 1.6 6.4 0.03 0.20 0.03 94 1015.3
20260505073051 5 0 1.6 6.4 0.03 0.20 0.03 94 1015.3
20260505072548 5 0 0.0 9.7 0.03 0.20 0.03 94 1015.3
20260505072048 5 123 1.6 9.7 0.03 0.20 0.03 94 1015.3
20260505071557 5 297 1.6 9.7 0.05 0.20 0.03 94 1015.4
20260505071045 5 101 1.6 9.7 0.05 0.20 0.03 94 1015.4
20260505070547 5 51 3.2 8.0 0.05 0.20 0.03 94 1015.4
20260505070056 5 144 1.6 12.9 0.03 0.18 0.00 94 1015.4
20260505065546 5 94 1.6 12.9 0.03 0.18 0.18 94 1015.4
20260505065044 5 136 1.6 12.9 0.03 0.18 0.18 94 1015.6
20260505064551 5 172 1.6 8.0 0.03 0.18 0.18 94 1015.6
20260505064048 5 67 0.0 8.0 0.03 0.18 0.18 94 1015.6
20260505063732 5 301 1.6 8.0 0.03 0.18 0.18 94 1015.6
20260505063119 5 71 1.6 8.0 0.03 0.18 0.18 94 1015.6
20260505062546 5 50 1.6 6.4 0.03 0.18 0.18 94 1015.6
20260505062045 5 170 1.6 11.3 0.03 0.18 0.18 94 1015.6
20260505061623 5 44 1.6 11.3 0.00 0.15 0.15 93 1015.6
20260505061045 5 60 0.0 8.0 0.03 0.15 0.15 94 1015.8
20260505060548 5 182 1.6 8.0 0.03 0.15 0.15 94 1015.8
20260505055546 5 163 1.6 11.3 0.03 0.15 0.15 94 1015.8
20260505055046 5 56 1.6 12.9 0.03 0.15 0.15 93 1015.8
20260505054606 5 238 1.6 12.9 0.03 0.15 0.15 94 1016.0
20260505054048 5 153 3.2 12.9 0.03 0.15 0.15 93 1016.0
20260505053545 5 137 1.6 6.4 0.03 0.15 0.15 93 1016.1
20260505053051 5 0 1.6 8.0 0.03 0.15 0.15 93 1015.9
20260505052548 5 139 1.6 8.0 0.03 0.15 0.15 93 1016.0
20260505052048 5 116 1.6 11.3 0.03 0.15 0.15 93 1016.0
20260505051610 5 0 1.6 11.3 0.03 0.15 0.15 93 1016.1
20260505051048 5 46 3.2 29.0 0.03 0.13 0.13 93 1016.2
20260505050547 5 138 1.6 29.0 0.03 0.13 0.13 93 1016.2